TimeEST,TemperatureF,Dew PointF,Humidity,Sea Level PressureIn,VisibilityMPH,Wind Direction,Wind SpeedMPH,Gust SpeedMPH,PrecipitationIn,Events,Conditions,WindDirDegrees,DateUTC
12:54 AM,32.0,26.1,79,30.22,10.0,Calm,Calm,-,N/A,,Clear,0,2012-12-12 05:54:00
1:54 AM,30.9,25.0,79,30.24,10.0,Calm,Calm,-,N/A,,Clear,0,2012-12-12 06:54:00
2:54 AM,30.0,26.1,85,30.26,10.0,Calm,Calm,-,N/A,,Clear,0,2012-12-12 07:54:00
3:54 AM,30.9,24.1,76,30.29,10.0,Calm,Calm,-,N/A,,Clear,0,2012-12-12 08:54:00
4:54 AM,30.0,26.1,85,30.31,10.0,Calm,Calm,-,N/A,,Clear,0,2012-12-12 09:54:00
5:54 AM,30.9,25.0,79,30.34,10.0,Calm,Calm,-,N/A,,Clear,0,2012-12-12 10:54:00
6:54 AM,28.9,25.0,85,30.35,10.0,Calm,Calm,-,N/A,,Clear,0,2012-12-12 11:54:00
8:54 AM,35.1,27.0,72,30.38,10.0,Calm,Calm,-,N/A,,Clear,0,2012-12-12 13:54:00
9:54 AM,39.0,27.0,62,30.39,10.0,Calm,Calm,-,N/A,,Clear,0,2012-12-12 14:54:00
10:54 AM,39.9,25.0,55,30.41,10.0,NNW,5.8,-,N/A,,Clear,330,2012-12-12 15:54:00
11:54 AM,41.0,25.0,53,30.40,10.0,North,6.9,-,N/A,,Partly Cloudy,350,2012-12-12 16:54:00
12:54 PM,41.0,24.1,51,30.38,10.0,NNW,6.9,-,N/A,,Clear,330,2012-12-12 17:54:00
1:54 PM,42.1,25.0,51,30.38,10.0,WNW,8.1,-,N/A,,Clear,300,2012-12-12 18:54:00
2:54 PM,41.0,25.0,53,30.39,10.0,WNW,4.6,-,N/A,,Clear,300,2012-12-12 19:54:00
3:54 PM,39.0,24.1,55,30.39,10.0,NW,8.1,-,N/A,,Clear,320,2012-12-12 20:54:00
4:54 PM,37.0,24.1,59,30.40,10.0,NW,3.5,-,N/A,,Clear,320,2012-12-12 21:54:00
5:54 PM,36.0,24.1,62,30.40,10.0,Calm,Calm,-,N/A,,Clear,0,2012-12-12 22:54:00
6:54 PM,35.1,24.1,64,30.40,10.0,Calm,Calm,-,N/A,,Clear,0,2012-12-12 23:54:00
7:54 PM,33.1,25.0,72,30.42,10.0,Calm,Calm,-,N/A,,Clear,0,2012-12-13 00:54:00
8:54 PM,32.0,24.1,73,30.44,10.0,Calm,Calm,-,N/A,,Clear,0,2012-12-13 01:54:00
9:54 PM,33.1,25.0,72,30.44,10.0,Calm,Calm,-,N/A,,Clear,0,2012-12-13 02:54:00
10:54 PM,34.0,24.1,67,30.45,10.0,Calm,Calm,-,N/A,,Clear,0,2012-12-13 03:54:00
11:54 PM,34.0,24.1,67,30.43,10.0,Calm,Calm,-,N/A,,Clear,0,2012-12-13 04:54:00